| time (UTC) | temp F | wind direction | speed MPH | gust MPH | rain 1hr in | rain 24hr in | rain mn in | humidity % | barometer mb |
| 20260504231532 | 57 | 294 | 0.0 | 0.0 | 0.00 | 0.00 | 0.00 | 57 | 1000.2 |
| 20260504230038 | 56 | 169 | 0.0 | 1.0 | 0.00 | 0.00 | 0.00 | 60 | 1000.0 |
| 20260504224524 | 55 | 298 | 0.0 | 6.0 | 0.00 | 0.00 | 0.00 | 59 | 1000.4 |
| 20260504223019 | 60 | 258 | 3.0 | 7.0 | 0.00 | 0.00 | 0.00 | 40 | 1000.5 |
| 20260504221535 | 60 | 318 | 1.0 | 5.0 | 0.00 | 0.00 | 0.00 | 40 | 1000.5 |
| 20260504220010 | 60 | 336 | 0.0 | 2.0 | 0.00 | 0.00 | 0.00 | 41 | 999.3 |
| 20260504214506 | 60 | 27 | 3.0 | 6.0 | 0.00 | 0.00 | 0.00 | 42 | 998.7 |
| 20260504213001 | 61 | 18 | 1.0 | 7.0 | 0.00 | 0.00 | 0.00 | 40 | 999.0 |
| 20260504211557 | 63 | 348 | 2.0 | 9.0 | 0.00 | 0.00 | 0.00 | 36 | 998.9 |
| 20260504210053 | 63 | 319 | 2.0 | 8.0 | 0.00 | 0.00 | 0.00 | 34 | 998.9 |
| 20260504204553 | 66 | 27 | 3.0 | 10.0 | 0.00 | 0.00 | 0.00 | 28 | 998.9 |
| 20260504203049 | 68 | 103 | 3.0 | 10.0 | 0.00 | 0.00 | 0.00 | 27 | 998.0 |
| 20260504201540 | 67 | 187 | 1.0 | 5.0 | 0.00 | 0.00 | 0.00 | 25 | 998.1 |
| 20260504200034 | 67 | 252 | 1.0 | 8.0 | 0.00 | 0.00 | 0.00 | 26 | 998.2 |
| 20260504194539 | 68 | 276 | 2.0 | 6.0 | 0.00 | 0.00 | 0.00 | 24 | 998.2 |
| 20260504193030 | 68 | 285 | 1.0 | 14.0 | 0.00 | 0.00 | 0.00 | 22 | 998.1 |
| 20260504191535 | 69 | 249 | 2.0 | 6.0 | 0.00 | 0.00 | 0.00 | 22 | 997.9 |
| 20260504190021 | 69 | 252 | 1.0 | 5.0 | 0.00 | 0.00 | 0.00 | 23 | 998.0 |
| 20260504184519 | 69 | 136 | 2.0 | 7.0 | 0.00 | 0.00 | 0.00 | 22 | 998.1 |
| 20260504183012 | 68 | 272 | 1.0 | 8.0 | 0.00 | 0.00 | 0.00 | 23 | 998.4 |
| 20260504181514 | 68 | 236 | 3.0 | 7.0 | 0.00 | 0.00 | 0.00 | 24 | 998.7 |
| 20260504180004 | 67 | 287 | 1.0 | 8.0 | 0.00 | 0.00 | 0.00 | 25 | 999.1 |
| 20260504174558 | 67 | 281 | 2.0 | 8.0 | 0.00 | 0.00 | 0.00 | 25 | 999.6 |
| 20260504173054 | 66 | 283 | 2.0 | 8.0 | 0.00 | 0.00 | 0.00 | 27 | 1000.0 |
| 20260504171554 | 65 | 264 | 2.0 | 6.0 | 0.00 | 0.00 | 0.00 | 27 | 1000.2 |
| 20260504081528 | 55 | 281 | 2.0 | 5.0 | 0.00 | 0.00 | 0.00 | 28 | 1001.7 |
| 20260504044542 | 62 | 269 | 3.0 | 10.0 | 0.00 | 0.00 | 0.00 | 24 | 1002.5 |
| 20260504043037 | 62 | 238 | 1.0 | 8.0 | 0.00 | 0.00 | 0.00 | 24 | 1002.4 |
| 20260504041531 | 63 | 212 | 2.0 | 6.0 | 0.00 | 0.00 | 0.00 | 25 | 1002.5 |
| 20260504040043 | 63 | 213 | 2.0 | 8.0 | 0.00 | 0.00 | 0.00 | 25 | 1002.6 |
| 20260504034524 | 63 | 221 | 3.0 | 8.0 | 0.00 | 0.00 | 0.00 | 25 | 1002.8 |
| 20260504033022 | 63 | 300 | 2.0 | 10.0 | 0.00 | 0.00 | 0.00 | 25 | 1002.7 |
| 20260504031515 | 63 | 243 | 2.0 | 8.0 | 0.00 | 0.00 | 0.00 | 25 | 1002.7 |
| 20260504030010 | 63 | 274 | 3.0 | 8.0 | 0.00 | 0.00 | 0.00 | 25 | 1002.6 |
| 20260504024504 | 64 | 231 | 0.0 | 6.0 | 0.00 | 0.00 | 0.00 | 24 | 1002.5 |
| 20260504023001 | 65 | 225 | 0.0 | 4.0 | 0.00 | 0.00 | 0.00 | 23 | 1002.3 |
| 20260504021557 | 65 | 176 | 0.0 | 6.0 | 0.00 | 0.00 | 0.00 | 23 | 1002.2 |
| 20260504020052 | 65 | 322 | 0.0 | 5.0 | 0.00 | 0.00 | 0.00 | 22 | 1002.0 |
| 20260504014559 | 65 | 230 | 0.0 | 4.0 | 0.00 | 0.00 | 0.00 | 22 | 1001.8 |
| 20260504013043 | 66 | 165 | 1.0 | 6.0 | 0.00 | 0.00 | 0.00 | 22 | 1001.6 |
| 20260504011541 | 66 | 333 | 0.0 | 1.0 | 0.00 | 0.00 | 0.00 | 22 | 1001.6 |
| 20260504010034 | 66 | 323 | 0.0 | 12.0 | 0.00 | 0.00 | 0.00 | 21 | 1001.8 |
| 20260504004540 | 67 | 134 | 1.0 | 9.0 | 0.00 | 0.00 | 0.00 | 22 | 1002.1 |
| 20260504003024 | 67 | 339 | 2.0 | 9.0 | 0.00 | 0.00 | 0.00 | 22 | 1002.3 |
| 20260504001520 | 68 | 43 | 0.0 | 2.0 | 0.00 | 0.00 | 0.00 | 22 | 1002.1 |
| 20260504000015 | 68 | 167 | 1.0 | 7.0 | 0.00 | 0.00 | 0.00 | 21 | 1002.5 |
| 20260503234510 | 68 | 101 | 0.0 | 3.0 | 0.00 | 0.00 | 0.00 | 21 | 1002.6 |
| 20260503233007 | 68 | 95 | 1.0 | 7.0 | 0.00 | 0.00 | 0.00 | 21 | 1002.7 |